Time,TemperatureF,DewpointF,PressureIn,WindDirection,WindDirectionDegrees,WindSpeedMPH,WindSpeedGustMPH,Humidity,HourlyPrecipIn,Conditions,Clouds,dailyrainin,SoftwareType,DateUTC
2013-11-23 00:02:00,32.0,29.7,30.54,NNW,335,4.0,6.0,91,0.00,,,0.00,Wunderground v.1.15,2013-11-23 06:02:00,
2013-11-23 00:08:00,31.9,29.6,30.55,NE,42,3.0,6.0,91,0.00,,,0.00,Wunderground v.1.15,2013-11-23 06:08:00,
2013-11-23 00:13:00,31.9,29.6,30.55,NNW,345,5.0,6.0,91,0.00,,,0.00,Wunderground v.1.15,2013-11-23 06:13:00,
2013-11-23 00:19:00,32.0,29.7,30.55,North,4,1.0,6.0,91,0.00,,,0.00,Wunderground v.1.15,2013-11-23 06:19:00,
2013-11-23 00:25:00,31.9,29.3,30.54,NE,50,4.0,4.0,90,0.00,,,0.00,Wunderground v.1.15,2013-11-23 06:25:00,
2013-11-23 00:31:00,31.8,29.2,30.55,North,3,2.0,3.0,90,0.00,,,0.00,Wunderground v.1.15,2013-11-23 06:31:00,
2013-11-23 00:36:00,31.8,29.2,30.55,ENE,76,1.0,4.0,90,0.00,,,0.00,Wunderground v.1.15,2013-11-23 06:36:00,
2013-11-23 00:42:00,31.8,29.2,30.55,SE,129,1.0,4.0,90,0.00,,,0.00,Wunderground v.1.15,2013-11-23 06:42:00,
2013-11-23 00:48:00,31.8,29.2,30.55,NE,34,7.0,7.0,90,0.00,,,0.00,Wunderground v.1.15,2013-11-23 06:48:00,
2013-11-23 00:54:00,31.8,29.2,30.55,East,85,2.0,4.0,90,0.00,,,0.00,Wunderground v.1.15,2013-11-23 06:54:00,
2013-11-23 00:59:00,32.0,29.4,30.56,North,360,2.0,4.0,90,0.00,,,0.00,Wunderground v.1.15,2013-11-23 06:59:00,
2013-11-23 01:05:00,31.9,29.3,30.56,North,349,1.0,3.0,90,0.00,,,0.00,Wunderground v.1.15,2013-11-23 07:05:00,
2013-11-23 01:11:00,31.9,29.3,30.56,North,349,3.0,4.0,90,0.00,,,0.00,Wunderground v.1.15,2013-11-23 07:11:00,
2013-11-23 01:17:00,32.0,29.4,30.56,East,92,2.0,4.0,90,0.00,,,0.00,Wunderground v.1.15,2013-11-23 07:17:00,
2013-11-23 01:23:00,32.0,29.1,30.55,ENE,64,2.0,7.0,89,0.00,,,0.00,Wunderground v.1.15,2013-11-23 07:23:00,
2013-11-23 01:29:00,32.0,29.4,30.55,ENE,73,6.0,7.0,90,0.00,,,0.00,Wunderground v.1.15,2013-11-23 07:29:00,
2013-11-23 01:35:00,32.0,29.4,30.55,NNW,345,1.0,4.0,90,0.00,,,0.00,Wunderground v.1.15,2013-11-23 07:35:00,
2013-11-23 01:40:00,32.0,29.4,30.55,East,101,2.0,4.0,90,0.00,,,0.00,Wunderground v.1.15,2013-11-23 07:40:00,
2013-11-23 01:46:00,32.1,29.5,30.56,ENE,69,2.0,4.0,90,0.00,,,0.00,Wunderground v.1.15,2013-11-23 07:46:00,
2013-11-23 01:52:00,32.1,29.5,30.55,ENE,60,4.0,4.0,90,0.00,,,0.00,Wunderground v.1.15,2013-11-23 07:52:00,
2013-11-23 01:58:00,32.1,29.2,30.56,ENE,61,2.0,5.0,89,0.00,,,0.00,Wunderground v.1.15,2013-11-23 07:58:00,
2013-11-23 02:03:00,32.1,29.5,30.56,NE,53,4.0,7.0,90,0.00,,,0.00,Wunderground v.1.15,2013-11-23 08:03:00,
2013-11-23 02:08:00,32.2,29.6,30.56,ENE,67,3.0,7.0,90,0.00,,,0.00,Wunderground v.1.15,2013-11-23 08:08:00,
2013-11-23 02:13:00,32.1,29.5,30.56,NNE,12,3.0,5.0,90,0.00,,,0.00,Wunderground v.1.15,2013-11-23 08:13:00,
2013-11-23 02:18:00,32.1,29.2,30.56,NNW,333,2.0,5.0,89,0.00,,,0.00,Wunderground v.1.15,2013-11-23 08:18:00,
2013-11-23 02:23:00,32.1,29.2,30.57,East,101,1.0,4.0,89,0.00,,,0.00,Wunderground v.1.15,2013-11-23 08:23:00,
2013-11-23 02:28:00,32.1,29.2,30.56,NW,321,4.0,4.0,89,0.00,,,0.00,Wunderground v.1.15,2013-11-23 08:28:00,
2013-11-23 02:33:00,32.1,29.2,30.57,NE,44,5.0,7.0,89,0.00,,,0.00,Wunderground v.1.15,2013-11-23 08:33:00,
2013-11-23 02:38:00,32.2,29.3,30.57,NE,44,2.0,7.0,89,0.00,,,0.00,Wunderground v.1.15,2013-11-23 08:38:00,
2013-11-23 02:43:00,32.2,29.3,30.57,NE,34,4.0,4.0,89,0.00,,,0.00,Wunderground v.1.15,2013-11-23 08:43:00,
2013-11-23 02:48:00,32.2,29.3,30.57,NE,46,3.0,6.0,89,0.00,,,0.00,Wunderground v.1.15,2013-11-23 08:48:00,
2013-11-23 02:53:00,32.1,29.2,30.57,ENE,59,1.0,5.0,89,0.00,,,0.00,Wunderground v.1.15,2013-11-23 08:53:00,
2013-11-23 02:58:00,32.2,29.3,30.57,ENE,77,2.0,5.0,89,0.00,,,0.00,Wunderground v.1.15,2013-11-23 08:58:00,
2013-11-23 03:03:00,32.3,29.7,30.57,NE,38,3.0,3.0,90,0.00,,,0.00,Wunderground v.1.15,2013-11-23 09:03:00,
2013-11-23 03:08:00,32.3,29.4,30.57,NNE,27,3.0,5.0,89,0.00,,,0.00,Wunderground v.1.15,2013-11-23 09:08:00,
2013-11-23 03:13:00,32.2,29.3,30.57,NE,49,0.0,5.0,89,0.00,,,0.00,Wunderground v.1.15,2013-11-23 09:13:00,
2013-11-23 03:18:00,32.3,29.4,30.58,NNE,25,4.0,6.0,89,0.00,,,0.00,Wunderground v.1.15,2013-11-23 09:18:00,
2013-11-23 03:23:00,32.2,29.3,30.57,NNE,25,1.0,5.0,89,0.00,,,0.00,Wunderground v.1.15,2013-11-23 09:23:00,
2013-11-23 03:28:00,32.3,29.4,30.57,ENE,68,2.0,6.0,89,0.00,,,0.00,Wunderground v.1.15,2013-11-23 09:28:00,
2013-11-23 03:33:00,32.3,29.4,30.57,NE,53,3.0,4.0,89,0.00,,,0.00,Wunderground v.1.15,2013-11-23 09:33:00,
2013-11-23 03:38:00,32.3,29.4,30.57,East,79,2.0,5.0,89,0.00,,,0.00,Wunderground v.1.15,2013-11-23 09:38:00,
2013-11-23 03:43:00,32.3,29.4,30.57,NW,323,3.0,5.0,89,0.00,,,0.00,Wunderground v.1.15,2013-11-23 09:43:00,
2013-11-23 03:48:00,32.2,29.3,30.56,East,79,3.0,9.0,89,0.00,,,0.00,Wunderground v.1.15,2013-11-23 09:48:00,
2013-11-23 03:53:00,32.2,29.3,30.56,NE,40,1.0,6.0,89,0.00,,,0.00,Wunderground v.1.15,2013-11-23 09:53:00,
2013-11-23 03:58:00,32.3,29.4,30.56,ENE,59,1.0,6.0,89,0.00,,,0.00,Wunderground v.1.15,2013-11-23 09:58:00,
2013-11-23 04:03:00,32.3,29.4,30.57,East,96,3.0,3.0,89,0.00,,,0.00,Wunderground v.1.15,2013-11-23 10:03:00,
2013-11-23 04:08:00,32.3,29.4,30.57,NNE,16,2.0,4.0,89,0.00,,,0.00,Wunderground v.1.15,2013-11-23 10:08:00,
2013-11-23 04:13:00,32.3,29.4,30.57,NNW,328,1.0,4.0,89,0.00,,,0.00,Wunderground v.1.15,2013-11-23 10:13:00,
2013-11-23 04:18:00,32.2,29.3,30.58,NNW,345,1.0,5.0,89,0.00,,,0.00,Wunderground v.1.15,2013-11-23 10:18:00,
2013-11-23 04:23:00,32.1,28.9,30.57,NNE,25,5.0,5.0,88,0.00,,,0.00,Wunderground v.1.15,2013-11-23 10:23:00,
2013-11-23 04:28:00,32.2,29.3,30.57,NE,37,3.0,6.0,89,0.00,,,0.00,Wunderground v.1.15,2013-11-23 10:28:00,
2013-11-23 04:33:00,32.2,29.3,30.57,NNE,20,3.0,5.0,89,0.00,,,0.00,Wunderground v.1.15,2013-11-23 10:33:00,
2013-11-23 04:38:00,32.1,29.2,30.57,NNE,23,6.0,7.0,89,0.00,,,0.00,Wunderground v.1.15,2013-11-23 10:38:00,
2013-11-23 04:43:00,31.9,28.8,30.56,NE,46,3.0,7.0,88,0.00,,,0.00,Wunderground v.1.15,2013-11-23 10:43:00,
2013-11-23 04:48:00,31.9,28.8,30.57,ENE,63,2.0,9.0,88,0.00,,,0.00,Wunderground v.1.15,2013-11-23 10:48:00,
2013-11-23 04:53:00,31.9,28.8,30.57,NE,49,4.0,6.0,88,0.00,,,0.00,Wunderground v.1.15,2013-11-23 10:53:00,
2013-11-23 04:58:00,31.8,28.7,30.58,NNW,335,3.0,8.0,88,0.00,,,0.00,Wunderground v.1.15,2013-11-23 10:58:00,
2013-11-23 05:03:00,31.8,28.7,30.58,NNE,32,2.0,4.0,88,0.00,,,0.00,Wunderground v.1.15,2013-11-23 11:03:00,
2013-11-23 05:08:00,31.8,28.7,30.59,NE,52,2.0,7.0,88,0.00,,,0.00,Wunderground v.1.15,2013-11-23 11:08:00,
2013-11-23 05:13:00,31.8,28.7,30.58,East,82,1.0,3.0,88,0.00,,,0.00,Wunderground v.1.15,2013-11-23 11:13:00,
2013-11-23 05:18:00,31.8,28.9,30.59,NNE,30,2.0,3.0,89,0.00,,,0.00,Wunderground v.1.15,2013-11-23 11:18:00,
2013-11-23 05:23:00,31.8,28.9,30.59,East,95,1.0,3.0,89,0.00,,,0.00,Wunderground v.1.15,2013-11-23 11:23:00,
2013-11-23 05:28:00,31.7,28.6,30.59,NNW,345,2.0,4.0,88,0.00,,,0.00,Wunderground v.1.15,2013-11-23 11:28:00,
2013-11-23 05:33:00,31.6,28.5,30.59,NNW,340,2.0,3.0,88,0.00,,,0.00,Wunderground v.1.15,2013-11-23 11:33:00,
2013-11-23 05:38:00,31.6,28.5,30.59,NE,44,3.0,5.0,88,0.00,,,0.00,Wunderground v.1.15,2013-11-23 11:38:00,
2013-11-23 05:43:00,31.6,28.7,30.59,NNE,13,3.0,3.0,89,0.00,,,0.00,Wunderground v.1.15,2013-11-23 11:43:00,
2013-11-23 05:48:00,31.5,28.4,30.60,NNW,347,1.0,5.0,88,0.00,,,0.00,Wunderground v.1.15,2013-11-23 11:48:00,
2013-11-23 05:53:00,31.3,28.4,30.60,NNE,28,3.0,6.0,89,0.00,,,0.00,Wunderground v.1.15,2013-11-23 11:53:00,
2013-11-23 05:58:00,31.2,28.1,30.60,East,79,3.0,8.0,88,0.00,,,0.00,Wunderground v.1.15,2013-11-23 11:58:00,
2013-11-23 06:03:00,31.0,27.9,30.60,NE,42,3.0,7.0,88,0.00,,,0.00,Wunderground v.1.15,2013-11-23 12:03:00,
2013-11-23 06:08:00,30.9,27.5,30.60,NE,52,3.0,10.0,87,0.00,,,0.00,Wunderground v.1.15,2013-11-23 12:08:00,
2013-11-23 06:13:00,30.9,27.8,30.61,NE,44,3.0,6.0,88,0.00,,,0.00,Wunderground v.1.15,2013-11-23 12:13:00,
2013-11-23 06:18:00,30.9,27.8,30.61,ENE,58,2.0,7.0,88,0.00,,,0.00,Wunderground v.1.15,2013-11-23 12:18:00,
2013-11-23 06:23:00,30.9,27.8,30.61,ENE,65,4.0,5.0,88,0.00,,,0.00,Wunderground v.1.15,2013-11-23 12:23:00,
2013-11-23 06:28:00,30.9,27.8,30.61,ENE,72,1.0,5.0,88,0.00,,,0.00,Wunderground v.1.15,2013-11-23 12:28:00,
2013-11-23 06:33:00,30.9,27.8,30.62,North,360,6.0,6.0,88,0.00,,,0.00,Wunderground v.1.15,2013-11-23 12:33:00,
2013-11-23 06:38:00,30.9,27.8,30.62,NNE,27,2.0,7.0,88,0.00,,,0.00,Wunderground v.1.15,2013-11-23 12:38:00,
2013-11-23 06:43:00,30.9,27.8,30.62,NE,46,2.0,4.0,88,0.00,,,0.00,Wunderground v.1.15,2013-11-23 12:43:00,
2013-11-23 06:48:00,30.9,27.8,30.62,ENE,75,5.0,5.0,88,0.00,,,0.00,Wunderground v.1.15,2013-11-23 12:48:00,
2013-11-23 06:53:00,30.9,27.8,30.62,ENE,71,3.0,5.0,88,0.00,,,0.00,Wunderground v.1.15,2013-11-23 12:53:00,
2013-11-23 06:58:00,31.0,27.9,30.62,ENE,71,1.0,5.0,88,0.00,,,0.00,Wunderground v.1.15,2013-11-23 12:58:00,
2013-11-23 07:03:00,31.0,27.9,30.63,East,89,3.0,4.0,88,0.00,,,0.00,Wunderground v.1.15,2013-11-23 13:03:00,
2013-11-23 07:08:00,31.1,28.0,30.63,NE,53,4.0,5.0,88,0.00,,,0.00,Wunderground v.1.15,2013-11-23 13:08:00,
2013-11-23 07:13:00,31.2,28.1,30.63,NNE,23,1.0,6.0,88,0.00,,,0.00,Wunderground v.1.15,2013-11-23 13:13:00,
2013-11-23 07:18:00,31.3,28.2,30.63,North,360,0.0,6.0,88,0.00,,,0.00,Wunderground v.1.15,2013-11-23 13:18:00,
2013-11-23 07:23:00,31.4,28.3,30.63,ENE,61,4.0,6.0,88,0.00,,,0.00,Wunderground v.1.15,2013-11-23 13:23:00,
2013-11-23 07:28:00,31.4,28.0,30.64,NE,49,1.0,6.0,87,0.00,,,0.00,Wunderground v.1.15,2013-11-23 13:28:00,
2013-11-23 07:33:00,31.5,28.1,30.63,ESE,120,5.0,5.0,87,0.00,,,0.00,Wunderground v.1.15,2013-11-23 13:33:00,
2013-11-23 07:38:00,31.7,28.3,30.64,East,98,1.0,5.0,87,0.00,,,0.00,Wunderground v.1.15,2013-11-23 13:38:00,
2013-11-23 07:43:00,31.8,27.8,30.64,ENE,75,5.0,8.0,85,0.00,,,0.00,Wunderground v.1.15,2013-11-23 13:43:00,
2013-11-23 07:48:00,31.8,28.1,30.64,ENE,71,0.0,8.0,86,0.00,,,0.00,Wunderground v.1.15,2013-11-23 13:48:00,
2013-11-23 07:53:00,32.0,28.0,30.65,ENE,75,3.0,3.0,85,0.00,,,0.00,Wunderground v.1.15,2013-11-23 13:53:00,
2013-11-23 07:58:00,32.1,27.8,30.64,NNE,33,2.0,6.0,84,0.00,,,0.00,Wunderground v.1.15,2013-11-23 13:58:00,
2013-11-23 08:03:00,32.2,27.6,30.64,NNE,12,4.0,6.0,83,0.00,,,0.00,Wunderground v.1.15,2013-11-23 14:03:00,
2013-11-23 08:08:00,32.3,27.7,30.65,ESE,103,3.0,6.0,83,0.00,,,0.00,Wunderground v.1.15,2013-11-23 14:08:00,
2013-11-23 08:13:00,32.5,27.3,30.65,ENE,65,1.0,6.0,81,0.00,,,0.00,Wunderground v.1.15,2013-11-23 14:13:00,
2013-11-23 08:18:00,32.8,27.6,30.65,ENE,77,3.0,6.0,81,0.00,,,0.00,Wunderground v.1.15,2013-11-23 14:18:00,
2013-11-23 08:23:00,32.8,27.3,30.65,ENE,59,1.0,6.0,80,0.00,,,0.00,Wunderground v.1.15,2013-11-23 14:23:00,
2013-11-23 08:28:00,32.9,27.1,30.65,East,87,4.0,6.0,79,0.00,,,0.00,Wunderground v.1.15,2013-11-23 14:28:00,
2013-11-23 08:33:00,33.0,26.9,30.65,ENE,62,4.0,5.0,78,0.00,,,0.00,Wunderground v.1.15,2013-11-23 14:33:00,
2013-11-23 08:38:00,33.1,27.0,30.66,NNE,17,4.0,6.0,78,0.00,,,0.00,Wunderground v.1.15,2013-11-23 14:38:00,
2013-11-23 08:43:00,33.2,26.5,30.66,ENE,76,3.0,4.0,76,0.00,,,0.00,Wunderground v.1.15,2013-11-23 14:43:00,
2013-11-23 08:48:00,33.5,26.7,30.66,NNE,20,3.0,5.0,76,0.00,,,0.00,Wunderground v.1.15,2013-11-23 14:48:00,
2013-11-23 08:53:00,33.6,26.5,30.65,North,351,4.0,6.0,75,0.00,,,0.00,Wunderground v.1.15,2013-11-23 14:53:00,
2013-11-23 08:58:00,33.7,26.6,30.65,NE,51,2.0,6.0,75,0.00,,,0.00,Wunderground v.1.15,2013-11-23 14:58:00,
2013-11-23 09:03:00,33.9,26.2,30.65,East,96,2.0,3.0,73,0.00,,,0.00,Wunderground v.1.15,2013-11-23 15:03:00,
2013-11-23 09:09:00,33.8,25.0,30.65,NE,52,2.0,8.0,70,0.00,,,0.00,Wunderground v.1.15,2013-11-23 15:09:00,
2013-11-23 09:15:00,33.9,24.4,30.65,ENE,66,2.0,5.0,68,0.00,,,0.00,Wunderground v.1.15,2013-11-23 15:15:00,
2013-11-23 09:20:00,34.1,24.6,30.65,ENE,73,3.0,3.0,68,0.00,,,0.00,Wunderground v.1.15,2013-11-23 15:20:00,
2013-11-23 09:26:00,34.1,23.9,30.65,East,81,3.0,4.0,66,0.00,,,0.00,Wunderground v.1.15,2013-11-23 15:26:00,
2013-11-23 09:32:00,34.0,23.5,30.65,ENE,74,3.0,4.0,65,0.00,,,0.00,Wunderground v.1.15,2013-11-23 15:32:00,
2013-11-23 09:37:00,34.2,24.4,30.66,East,89,4.0,4.0,67,0.00,,,0.00,Wunderground v.1.15,2013-11-23 15:37:00,
2013-11-23 09:42:00,34.4,24.6,30.66,NE,51,3.0,4.0,67,0.00,,,0.00,Wunderground v.1.15,2013-11-23 15:42:00,
2013-11-23 09:47:00,34.7,25.2,30.67,East,82,3.0,6.0,68,0.00,,,0.00,Wunderground v.1.15,2013-11-23 15:47:00,
2013-11-23 09:52:00,34.6,24.4,30.67,NE,44,2.0,3.0,66,0.00,,,0.00,Wunderground v.1.15,2013-11-23 15:52:00,
2013-11-23 09:57:00,34.6,22.9,30.67,ENE,68,2.0,9.0,62,0.00,,,0.00,Wunderground v.1.15,2013-11-23 15:57:00,
2013-11-23 10:03:00,34.5,22.4,30.67,East,83,3.0,9.0,61,0.00,,,0.00,Wunderground v.1.15,2013-11-23 16:03:00,
2013-11-23 10:08:00,34.5,21.6,30.67,East,88,1.0,9.0,59,0.00,,,0.00,Wunderground v.1.15,2013-11-23 16:08:00,
2013-11-23 10:14:00,34.6,20.9,30.67,East,90,2.0,11.0,57,0.00,,,0.00,Wunderground v.1.15,2013-11-23 16:14:00,
2013-11-23 10:20:00,34.9,22.0,30.67,NE,46,2.0,4.0,59,0.00,,,0.00,Wunderground v.1.15,2013-11-23 16:20:00,
2013-11-23 10:25:00,35.0,21.3,30.67,East,100,6.0,8.0,57,0.00,,,0.00,Wunderground v.1.15,2013-11-23 16:25:00,
2013-11-23 10:31:00,34.8,19.4,30.67,NNE,25,7.0,7.0,53,0.00,,,0.00,Wunderground v.1.15,2013-11-23 16:31:00,
2013-11-23 10:36:00,34.9,19.5,30.67,ENE,62,3.0,11.0,53,0.00,,,0.00,Wunderground v.1.15,2013-11-23 16:36:00,
2013-11-23 10:41:00,35.3,20.3,30.67,NE,38,7.0,8.0,54,0.00,,,0.00,Wunderground v.1.15,2013-11-23 16:41:00,
2013-11-23 10:46:00,35.4,19.0,30.67,NE,37,5.0,10.0,51,0.00,,,0.00,Wunderground v.1.15,2013-11-23 16:46:00,
2013-11-23 10:51:00,35.6,20.1,30.67,East,79,2.0,5.0,53,0.00,,,0.00,Wunderground v.1.15,2013-11-23 16:51:00,
2013-11-23 10:56:00,35.8,18.0,30.67,NE,54,5.0,7.0,48,0.00,,,0.00,Wunderground v.1.15,2013-11-23 16:56:00,
2013-11-23 11:01:00,35.8,18.5,30.66,ENE,57,4.0,8.0,49,0.00,,,0.00,Wunderground v.1.15,2013-11-23 17:01:00,
2013-11-23 11:06:00,35.9,19.5,30.67,ENE,76,6.0,12.0,51,0.00,,,0.00,Wunderground v.1.15,2013-11-23 17:06:00,
2013-11-23 11:11:00,36.1,18.3,30.67,NE,51,4.0,7.0,48,0.00,,,0.00,Wunderground v.1.15,2013-11-23 17:11:00,
2013-11-23 11:16:00,36.1,17.3,30.67,ENE,58,2.0,11.0,46,0.00,,,0.00,Wunderground v.1.15,2013-11-23 17:16:00,
2013-11-23 11:21:00,36.1,16.3,30.67,NE,38,4.0,8.0,44,0.00,,,0.00,Wunderground v.1.15,2013-11-23 17:21:00,
2013-11-23 11:26:00,36.1,16.8,30.67,NNW,348,9.0,9.0,45,0.00,,,0.00,Wunderground v.1.15,2013-11-23 17:26:00,
2013-11-23 11:31:00,36.1,15.2,30.66,NE,41,7.0,13.0,42,0.00,,,0.00,Wunderground v.1.15,2013-11-23 17:31:00,
2013-11-23 11:36:00,36.1,16.3,30.67,NE,52,5.0,13.0,44,0.00,,,0.00,Wunderground v.1.15,2013-11-23 17:36:00,
2013-11-23 11:41:00,36.2,15.8,30.66,ENE,63,4.0,7.0,43,0.00,,,0.00,Wunderground v.1.15,2013-11-23 17:41:00,
2013-11-23 11:46:00,36.3,16.4,30.66,NE,46,4.0,7.0,44,0.00,,,0.00,Wunderground v.1.15,2013-11-23 17:46:00,
2013-11-23 11:51:00,36.3,17.5,30.66,ESE,107,4.0,6.0,46,0.00,,,0.00,Wunderground v.1.15,2013-11-23 17:51:00,
2013-11-23 11:56:00,36.4,16.5,30.66,ENE,71,3.0,6.0,44,0.00,,,0.00,Wunderground v.1.15,2013-11-23 17:56:00,
2013-11-23 12:01:00,36.5,17.1,30.66,ESE,108,2.0,6.0,45,0.00,,,0.00,Wunderground v.1.15,2013-11-23 18:01:00,
2013-11-23 12:06:00,36.8,18.4,30.65,NE,56,3.0,6.0,47,0.00,,,0.00,Wunderground v.1.15,2013-11-23 18:06:00,
2013-11-23 12:11:00,37.2,19.3,30.66,NE,52,2.0,3.0,48,0.00,,,0.00,Wunderground v.1.15,2013-11-23 18:11:00,
2013-11-23 12:16:00,37.2,18.8,30.65,NE,38,3.0,7.0,47,0.00,,,0.00,Wunderground v.1.15,2013-11-23 18:16:00,
2013-11-23 12:21:00,37.3,18.4,30.65,ENE,70,7.0,8.0,46,0.00,,,0.00,Wunderground v.1.15,2013-11-23 18:21:00,
2013-11-23 12:26:00,37.1,16.6,30.65,NW,313,6.0,10.0,43,0.00,,,0.00,Wunderground v.1.15,2013-11-23 18:26:00,
2013-11-23 12:31:00,37.4,19.5,30.65,NNE,17,5.0,5.0,48,0.00,,,0.00,Wunderground v.1.15,2013-11-23 18:31:00,
2013-11-23 12:36:00,37.4,18.0,30.65,North,3,2.0,8.0,45,0.00,,,0.00,Wunderground v.1.15,2013-11-23 18:36:00,
2013-11-23 12:41:00,37.6,18.7,30.65,ENE,63,4.0,5.0,46,0.00,,,0.00,Wunderground v.1.15,2013-11-23 18:41:00,
2013-11-23 12:46:00,37.6,17.6,30.65,North,9,3.0,9.0,44,0.00,,,0.00,Wunderground v.1.15,2013-11-23 18:46:00,
2013-11-23 12:51:00,37.8,17.8,30.64,NE,34,1.0,6.0,44,0.00,,,0.00,Wunderground v.1.15,2013-11-23 18:51:00,
2013-11-23 12:56:00,38.0,18.5,30.65,NE,40,3.0,7.0,45,0.00,,,0.00,Wunderground v.1.15,2013-11-23 18:56:00,
2013-11-23 13:01:00,38.2,20.7,30.65,NNE,18,0.0,4.0,49,0.00,,,0.00,Wunderground v.1.15,2013-11-23 19:01:00,
2013-11-23 13:06:00,38.5,20.0,30.64,North,352,2.0,6.0,47,0.00,,,0.00,Wunderground v.1.15,2013-11-23 19:06:00,
2013-11-23 13:11:00,38.5,20.0,30.64,ENE,67,4.0,7.0,47,0.00,,,0.00,Wunderground v.1.15,2013-11-23 19:11:00,
2013-11-23 13:16:00,38.5,19.5,30.64,NNE,27,7.0,9.0,46,0.00,,,0.00,Wunderground v.1.15,2013-11-23 19:16:00,
2013-11-23 13:21:00,38.5,21.0,30.64,ENE,75,3.0,5.0,49,0.00,,,0.00,Wunderground v.1.15,2013-11-23 19:21:00,
2013-11-23 13:26:00,38.3,19.3,30.64,NE,49,2.0,12.0,46,0.00,,,0.00,Wunderground v.1.15,2013-11-23 19:26:00,
2013-11-23 13:31:00,38.1,20.1,30.64,NE,51,3.0,7.0,48,0.00,,,0.00,Wunderground v.1.15,2013-11-23 19:31:00,
2013-11-23 13:36:00,38.3,21.7,30.64,NNE,30,5.0,7.0,51,0.00,,,0.00,Wunderground v.1.15,2013-11-23 19:36:00,
2013-11-23 13:41:00,38.1,21.1,30.64,NNE,23,4.0,9.0,50,0.00,,,0.00,Wunderground v.1.15,2013-11-23 19:41:00,
2013-11-23 13:46:00,38.1,21.1,30.64,NNE,26,8.0,9.0,50,0.00,,,0.00,Wunderground v.1.15,2013-11-23 19:46:00,
2013-11-23 13:51:00,38.1,22.0,30.64,NE,42,4.0,6.0,52,0.00,,,0.00,Wunderground v.1.15,2013-11-23 19:51:00,
2013-11-23 13:56:00,38.1,22.0,30.64,North,5,2.0,10.0,52,0.00,,,0.00,Wunderground v.1.15,2013-11-23 19:56:00,
2013-11-23 14:01:00,38.3,22.6,30.63,ENE,57,4.0,4.0,53,0.00,,,0.00,Wunderground v.1.15,2013-11-23 20:01:00,
2013-11-23 14:06:00,38.2,22.1,30.63,NE,41,4.0,10.0,52,0.00,,,0.00,Wunderground v.1.15,2013-11-23 20:06:00,
2013-11-23 14:11:00,38.3,22.2,30.63,ENE,73,8.0,10.0,52,0.00,,,0.00,Wunderground v.1.15,2013-11-23 20:11:00,
2013-11-23 14:16:00,38.0,21.9,30.63,NNE,30,7.0,17.0,52,0.00,,,0.00,Wunderground v.1.15,2013-11-23 20:16:00,
2013-11-23 14:21:00,38.1,22.5,30.63,NE,50,3.0,6.0,53,0.00,,,0.00,Wunderground v.1.15,2013-11-23 20:21:00,
2013-11-23 14:26:00,38.2,23.0,30.63,NE,35,4.0,9.0,54,0.00,,,0.00,Wunderground v.1.15,2013-11-23 20:26:00,
2013-11-23 14:31:00,38.3,22.6,30.63,NE,41,6.0,6.0,53,0.00,,,0.00,Wunderground v.1.15,2013-11-23 20:31:00,
2013-11-23 14:36:00,38.4,23.2,30.63,NNE,20,1.0,8.0,54,0.00,,,0.00,Wunderground v.1.15,2013-11-23 20:36:00,
2013-11-23 14:41:00,38.4,23.2,30.63,NE,37,2.0,6.0,54,0.00,,,0.00,Wunderground v.1.15,2013-11-23 20:41:00,
2013-11-23 14:46:00,38.3,22.6,30.63,North,3,4.0,7.0,53,0.00,,,0.00,Wunderground v.1.15,2013-11-23 20:46:00,
2013-11-23 14:51:00,38.3,23.5,30.63,North,1,1.0,5.0,55,0.00,,,0.00,Wunderground v.1.15,2013-11-23 20:51:00,
2013-11-23 14:56:00,38.5,23.7,30.63,NNE,23,4.0,9.0,55,0.00,,,0.00,Wunderground v.1.15,2013-11-23 20:56:00,
2013-11-23 15:01:00,38.7,23.0,30.63,ENE,63,5.0,15.0,53,0.00,,,0.00,Wunderground v.1.15,2013-11-23 21:01:00,
2013-11-23 15:06:00,38.7,23.0,30.63,East,88,4.0,15.0,53,0.00,,,0.00,Wunderground v.1.15,2013-11-23 21:06:00,
2013-11-23 15:11:00,38.9,23.2,30.63,NE,46,5.0,9.0,53,0.00,,,0.00,Wunderground v.1.15,2013-11-23 21:11:00,
2013-11-23 15:16:00,38.8,23.1,30.63,North,9,4.0,9.0,53,0.00,,,0.00,Wunderground v.1.15,2013-11-23 21:16:00,
2013-11-23 15:21:00,38.8,22.7,30.63,NE,53,6.0,10.0,52,0.00,,,0.00,Wunderground v.1.15,2013-11-23 21:21:00,
2013-11-23 15:26:00,38.8,23.1,30.63,NNW,346,3.0,10.0,53,0.00,,,0.00,Wunderground v.1.15,2013-11-23 21:26:00,
2013-11-23 15:31:00,38.9,24.1,30.63,NNW,333,0.0,5.0,55,0.00,,,0.00,Wunderground v.1.15,2013-11-23 21:31:00,
2013-11-23 15:36:00,39.2,23.9,30.63,NE,47,4.0,6.0,54,0.00,,,0.00,Wunderground v.1.15,2013-11-23 21:36:00,
2013-11-23 15:41:00,39.4,24.1,30.63,NE,39,6.0,7.0,54,0.00,,,0.00,Wunderground v.1.15,2013-11-23 21:41:00,
2013-11-23 15:46:00,39.4,24.6,30.63,East,96,2.0,7.0,55,0.00,,,0.00,Wunderground v.1.15,2013-11-23 21:46:00,
2013-11-23 15:51:00,39.4,24.1,30.63,NNE,27,4.0,7.0,54,0.00,,,0.00,Wunderground v.1.15,2013-11-23 21:51:00,
2013-11-23 15:56:00,39.5,24.2,30.63,North,350,2.0,7.0,54,0.00,,,0.00,Wunderground v.1.15,2013-11-23 21:56:00,
2013-11-23 16:01:00,39.3,23.6,30.63,ENE,67,3.0,5.0,53,0.00,,,0.00,Wunderground v.1.15,2013-11-23 22:01:00,
2013-11-23 16:06:00,39.4,23.7,30.63,NW,308,3.0,6.0,53,0.00,,,0.00,Wunderground v.1.15,2013-11-23 22:06:00,
2013-11-23 16:11:00,39.5,21.9,30.63,East,84,6.0,9.0,49,0.00,,,0.00,Wunderground v.1.15,2013-11-23 22:11:00,
2013-11-23 16:16:00,39.3,21.2,30.63,East,89,2.0,12.0,48,0.00,,,0.00,Wunderground v.1.15,2013-11-23 22:16:00,
2013-11-23 16:21:00,39.1,21.5,30.63,East,91,4.0,6.0,49,0.00,,,0.00,Wunderground v.1.15,2013-11-23 22:21:00,
2013-11-23 16:26:00,38.9,21.8,30.63,NE,56,3.0,10.0,50,0.00,,,0.00,Wunderground v.1.15,2013-11-23 22:26:00,
2013-11-23 16:31:00,38.8,22.2,30.63,ENE,70,1.0,4.0,51,0.00,,,0.00,Wunderground v.1.15,2013-11-23 22:31:00,
2013-11-23 16:36:00,38.5,22.4,30.63,ENE,70,4.0,5.0,52,0.00,,,0.00,Wunderground v.1.15,2013-11-23 22:36:00,
2013-11-23 16:41:00,38.3,22.6,30.64,NE,40,6.0,8.0,53,0.00,,,0.00,Wunderground v.1.15,2013-11-23 22:41:00,
2013-11-23 16:46:00,37.7,22.1,30.64,NNE,23,9.0,12.0,53,0.00,,,0.00,Wunderground v.1.15,2013-11-23 22:46:00,
2013-11-23 16:51:00,37.2,21.6,30.64,NNE,16,6.0,9.0,53,0.00,,,0.00,Wunderground v.1.15,2013-11-23 22:51:00,
2013-11-23 16:56:00,36.7,20.7,30.65,NNE,30,5.0,9.0,52,0.00,,,0.00,Wunderground v.1.15,2013-11-23 22:56:00,
2013-11-23 17:01:00,36.4,20.9,30.65,ENE,66,2.0,8.0,53,0.00,,,0.00,Wunderground v.1.15,2013-11-23 23:01:00,
2013-11-23 17:06:00,36.1,20.6,30.65,NNE,29,5.0,8.0,53,0.00,,,0.00,Wunderground v.1.15,2013-11-23 23:06:00,
2013-11-23 17:09:00,35.9,20.4,30.65,ENE,60,3.0,8.0,53,0.00,,,0.00,Wunderground v.1.15,2013-11-23 23:09:00,
2013-11-23 17:14:00,35.6,21.0,30.65,NE,34,2.0,6.0,55,0.00,,,0.00,Wunderground v.1.15,2013-11-23 23:14:00,
2013-11-23 17:19:00,35.3,21.2,30.65,NNE,18,9.0,10.0,56,0.00,,,0.00,Wunderground v.1.15,2013-11-23 23:19:00,
2013-11-23 17:24:00,35.1,21.4,30.65,NE,50,5.0,7.0,57,0.00,,,0.00,Wunderground v.1.15,2013-11-23 23:24:00,
2013-11-23 17:29:00,34.9,20.8,30.65,NE,51,6.0,9.0,56,0.00,,,0.00,Wunderground v.1.15,2013-11-23 23:29:00,
2013-11-23 17:34:00,34.5,20.4,30.65,ENE,64,4.0,9.0,56,0.00,,,0.00,Wunderground v.1.15,2013-11-23 23:34:00,
2013-11-23 17:39:00,34.3,20.6,30.66,ENE,67,4.0,9.0,57,0.00,,,0.00,Wunderground v.1.15,2013-11-23 23:39:00,
2013-11-23 17:44:00,34.1,20.4,30.66,ENE,68,4.0,9.0,57,0.00,,,0.00,Wunderground v.1.15,2013-11-23 23:44:00,
2013-11-23 17:49:00,33.9,20.7,30.66,East,100,3.0,9.0,58,0.00,,,0.00,Wunderground v.1.15,2013-11-23 23:49:00,
2013-11-23 17:54:00,33.7,21.3,30.66,North,6,2.0,7.0,60,0.00,,,0.00,Wunderground v.1.15,2013-11-23 23:54:00,
2013-11-23 17:59:00,33.5,20.7,30.66,NNE,29,2.0,7.0,59,0.00,,,0.00,Wunderground v.1.15,2013-11-23 23:59:00,
2013-11-23 18:04:00,33.3,20.9,30.67,NNW,342,1.0,7.0,60,0.00,,,0.00,Wunderground v.1.15,2013-11-24 00:04:00,
2013-11-23 18:09:00,33.1,20.3,30.67,NNE,33,7.0,12.0,59,0.00,,,0.00,Wunderground v.1.15,2013-11-24 00:09:00,
2013-11-23 18:14:00,32.8,19.2,30.67,NE,40,4.0,11.0,57,0.00,,,0.00,Wunderground v.1.15,2013-11-24 00:14:00,
2013-11-23 18:19:00,32.5,19.3,30.67,ENE,68,3.0,11.0,58,0.00,,,0.00,Wunderground v.1.15,2013-11-24 00:19:00,
2013-11-23 18:24:00,32.3,19.6,30.68,ENE,63,3.0,8.0,59,0.00,,,0.00,Wunderground v.1.15,2013-11-24 00:24:00,
2013-11-23 18:29:00,31.9,19.2,30.68,NNE,13,5.0,8.0,59,0.00,,,0.00,Wunderground v.1.15,2013-11-24 00:29:00,
2013-11-23 18:34:00,31.6,18.9,30.68,NE,37,4.0,9.0,59,0.00,,,0.00,Wunderground v.1.15,2013-11-24 00:34:00,
2013-11-23 18:39:00,31.2,18.5,30.68,NNW,347,4.0,9.0,59,0.00,,,0.00,Wunderground v.1.15,2013-11-24 00:39:00,
2013-11-23 18:44:00,30.8,18.1,30.68,NE,44,3.0,12.0,59,0.00,,,0.00,Wunderground v.1.15,2013-11-24 00:44:00,
2013-11-23 18:49:00,30.5,17.9,30.68,NE,47,6.0,12.0,59,0.00,,,0.00,Wunderground v.1.15,2013-11-24 00:49:00,
2013-11-23 18:54:00,30.1,16.7,30.68,NNE,33,3.0,14.0,57,0.00,,,0.00,Wunderground v.1.15,2013-11-24 00:54:00,
2013-11-23 18:59:00,29.8,17.2,30.68,NE,46,10.0,14.0,59,0.00,,,0.00,Wunderground v.1.15,2013-11-24 00:59:00,
2013-11-23 19:04:00,29.6,17.4,30.68,NNE,33,5.0,6.0,60,0.00,,,0.00,Wunderground v.1.15,2013-11-24 01:04:00,
2013-11-23 19:09:00,29.4,17.2,30.68,WNW,300,2.0,8.0,60,0.00,,,0.00,Wunderground v.1.15,2013-11-24 01:09:00,
2013-11-23 19:14:00,29.2,17.0,30.69,NE,53,1.0,9.0,60,0.00,,,0.00,Wunderground v.1.15,2013-11-24 01:14:00,
2013-11-23 19:19:00,28.9,16.7,30.69,NE,54,1.0,9.0,60,0.00,,,0.00,Wunderground v.1.15,2013-11-24 01:19:00,
2013-11-23 19:24:00,28.8,17.0,30.69,WNW,295,5.0,11.0,61,0.00,,,0.00,Wunderground v.1.15,2013-11-24 01:24:00,
2013-11-23 19:29:00,28.6,16.8,30.69,North,9,1.0,11.0,61,0.00,,,0.00,Wunderground v.1.15,2013-11-24 01:29:00,
2013-11-23 19:34:00,28.5,16.4,30.70,ENE,68,3.0,7.0,60,0.00,,,0.00,Wunderground v.1.15,2013-11-24 01:34:00,
2013-11-23 19:39:00,28.4,16.7,30.70,NE,56,1.0,9.0,61,0.00,,,0.00,Wunderground v.1.15,2013-11-24 01:39:00,
2013-11-23 19:44:00,28.2,16.1,30.69,East,81,6.0,9.0,60,0.00,,,0.00,Wunderground v.1.15,2013-11-24 01:44:00,
2013-11-23 19:49:00,28.1,16.4,30.70,NE,53,4.0,9.0,61,0.00,,,0.00,Wunderground v.1.15,2013-11-24 01:49:00,
2013-11-23 19:54:00,28.0,16.6,30.70,North,359,4.0,6.0,62,0.00,,,0.00,Wunderground v.1.15,2013-11-24 01:54:00,
2013-11-23 19:59:00,28.0,17.0,30.70,NNE,25,7.0,7.0,63,0.00,,,0.00,Wunderground v.1.15,2013-11-24 01:59:00,
2013-11-23 20:04:00,27.9,16.2,30.70,ENE,57,2.0,8.0,61,0.00,,,0.00,Wunderground v.1.15,2013-11-24 02:04:00,
2013-11-23 20:09:00,27.8,16.5,30.70,ENE,76,1.0,8.0,62,0.00,,,0.00,Wunderground v.1.15,2013-11-24 02:09:00,
2013-11-23 20:14:00,27.7,16.4,30.70,NE,45,3.0,5.0,62,0.00,,,0.00,Wunderground v.1.15,2013-11-24 02:14:00,
2013-11-23 20:19:00,27.6,16.3,30.70,NNW,338,6.0,6.0,62,0.00,,,0.00,Wunderground v.1.15,2013-11-24 02:19:00,
2013-11-23 20:24:00,27.6,16.3,30.70,North,1,4.0,8.0,62,0.00,,,0.00,Wunderground v.1.15,2013-11-24 02:24:00,
2013-11-23 20:29:00,27.4,15.7,30.70,NE,41,2.0,8.0,61,0.00,,,0.00,Wunderground v.1.15,2013-11-24 02:29:00,
2013-11-23 20:34:00,27.3,16.0,30.70,ENE,61,1.0,6.0,62,0.00,,,0.00,Wunderground v.1.15,2013-11-24 02:34:00,
2013-11-23 20:39:00,27.3,16.4,30.70,ENE,71,4.0,6.0,63,0.00,,,0.00,Wunderground v.1.15,2013-11-24 02:39:00,
2013-11-23 20:44:00,27.2,15.9,30.70,NE,42,6.0,11.0,62,0.00,,,0.00,Wunderground v.1.15,2013-11-24 02:44:00,
2013-11-23 20:49:00,27.1,16.2,30.70,East,83,2.0,11.0,63,0.00,,,0.00,Wunderground v.1.15,2013-11-24 02:49:00,
2013-11-23 20:54:00,27.0,16.1,30.70,NE,54,1.0,4.0,63,0.00,,,0.00,Wunderground v.1.15,2013-11-24 02:54:00,
2013-11-23 20:59:00,26.8,16.2,30.70,ENE,76,5.0,11.0,64,0.00,,,0.00,Wunderground v.1.15,2013-11-24 02:59:00,
2013-11-23 21:04:00,26.7,15.4,30.70,NNE,23,6.0,12.0,62,0.00,,,0.00,Wunderground v.1.15,2013-11-24 03:04:00,
2013-11-23 21:09:00,26.6,15.3,30.69,ENE,75,2.0,12.0,62,0.00,,,0.00,Wunderground v.1.15,2013-11-24 03:09:00,
2013-11-23 21:14:00,26.4,14.8,30.69,North,356,7.0,9.0,61,0.00,,,0.00,Wunderground v.1.15,2013-11-24 03:14:00,
2013-11-23 21:19:00,26.3,14.3,30.70,ENE,73,3.0,9.0,60,0.00,,,0.00,Wunderground v.1.15,2013-11-24 03:19:00,
2013-11-23 21:24:00,26.3,14.3,30.70,ENE,61,5.0,9.0,60,0.00,,,0.00,Wunderground v.1.15,2013-11-24 03:24:00,
2013-11-23 21:29:00,26.2,14.6,30.70,ENE,57,3.0,9.0,61,0.00,,,0.00,Wunderground v.1.15,2013-11-24 03:29:00,
2013-11-23 21:34:00,26.1,14.1,30.70,East,89,2.0,9.0,60,0.00,,,0.00,Wunderground v.1.15,2013-11-24 03:34:00,
2013-11-23 21:39:00,25.9,13.9,30.70,East,84,5.0,9.0,60,0.00,,,0.00,Wunderground v.1.15,2013-11-24 03:39:00,
2013-11-23 21:44:00,25.8,13.8,30.70,ENE,70,5.0,12.0,60,0.00,,,0.00,Wunderground v.1.15,2013-11-24 03:44:00,
2013-11-23 21:49:00,25.7,14.1,30.70,East,83,3.0,12.0,61,0.00,,,0.00,Wunderground v.1.15,2013-11-24 03:49:00,
2013-11-23 21:54:00,25.5,13.5,30.70,NE,56,2.0,9.0,60,0.00,,,0.00,Wunderground v.1.15,2013-11-24 03:54:00,
2013-11-23 21:59:00,25.5,14.3,30.70,NE,47,5.0,9.0,62,0.00,,,0.00,Wunderground v.1.15,2013-11-24 03:59:00,
2013-11-23 22:04:00,25.4,14.2,30.70,East,90,3.0,7.0,62,0.00,,,0.00,Wunderground v.1.15,2013-11-24 04:04:00,
2013-11-23 22:09:00,25.2,14.4,30.71,NNE,26,5.0,7.0,63,0.00,,,0.00,Wunderground v.1.15,2013-11-24 04:09:00,
2013-11-23 22:14:00,25.0,14.2,30.70,NNW,345,3.0,5.0,63,0.00,,,0.00,Wunderground v.1.15,2013-11-24 04:14:00,
2013-11-23 22:19:00,24.9,13.3,30.70,NE,39,4.0,9.0,61,0.00,,,0.00,Wunderground v.1.15,2013-11-24 04:19:00,
2013-11-23 22:24:00,24.8,14.0,30.70,NNE,33,4.0,8.0,63,0.00,,,0.00,Wunderground v.1.15,2013-11-24 04:24:00,
2013-11-23 22:29:00,24.8,14.3,30.70,NNE,30,4.0,8.0,64,0.00,,,0.00,Wunderground v.1.15,2013-11-24 04:29:00,
2013-11-23 22:34:00,24.6,13.1,30.70,NE,37,5.0,10.0,61,0.00,,,0.00,Wunderground v.1.15,2013-11-24 04:34:00,
2013-11-23 22:39:00,24.5,13.7,30.70,East,80,2.0,10.0,63,0.00,,,0.00,Wunderground v.1.15,2013-11-24 04:39:00,
2013-11-23 22:44:00,24.4,13.6,30.70,ENE,78,3.0,5.0,63,0.00,,,0.00,Wunderground v.1.15,2013-11-24 04:44:00,
2013-11-23 22:49:00,24.4,13.6,30.70,NE,39,3.0,9.0,63,0.00,,,0.00,Wunderground v.1.15,2013-11-24 04:49:00,
2013-11-23 22:54:00,24.3,13.5,30.70,East,90,3.0,10.0,63,0.00,,,0.00,Wunderground v.1.15,2013-11-24 04:54:00,
2013-11-23 22:59:00,24.3,13.9,30.71,NE,44,5.0,10.0,64,0.00,,,0.00,Wunderground v.1.15,2013-11-24 04:59:00,
2013-11-23 23:01:00,24.2,13.4,30.71,East,79,6.0,9.0,63,0.00,,,0.00,Wunderground v.1.15,2013-11-24 05:01:00,
2013-11-23 23:02:00,24.2,13.4,30.71,NE,47,5.0,9.0,63,0.00,,,0.00,Wunderground v.1.15,2013-11-24 05:02:00,
2013-11-23 23:07:00,24.2,13.8,30.70,NNE,27,3.0,9.0,64,0.00,,,0.00,Wunderground v.1.15,2013-11-24 05:07:00,
2013-11-23 23:12:00,24.1,13.3,30.70,NE,50,4.0,12.0,63,0.00,,,0.00,Wunderground v.1.15,2013-11-24 05:12:00,
2013-11-23 23:17:00,24.1,14.0,30.71,East,95,3.0,12.0,65,0.00,,,0.00,Wunderground v.1.15,2013-11-24 05:17:00,
2013-11-23 23:22:00,24.0,13.2,30.72,ENE,57,4.0,9.0,63,0.00,,,0.00,Wunderground v.1.15,2013-11-24 05:22:00,
2013-11-23 23:27:00,23.8,13.4,30.71,NE,49,3.0,9.0,64,0.00,,,0.00,Wunderground v.1.15,2013-11-24 05:27:00,
2013-11-23 23:32:00,23.8,14.1,30.71,ENE,69,4.0,5.0,66,0.00,,,0.00,Wunderground v.1.15,2013-11-24 05:32:00,
2013-11-23 23:37:00,23.7,14.0,30.71,NE,42,4.0,7.0,66,0.00,,,0.00,Wunderground v.1.15,2013-11-24 05:37:00,
2013-11-23 23:42:00,23.6,13.9,30.71,NNE,25,6.0,7.0,66,0.00,,,0.00,Wunderground v.1.15,2013-11-24 05:42:00,
2013-11-23 23:47:00,23.4,13.7,30.71,NNE,33,6.0,7.0,66,0.00,,,0.00,Wunderground v.1.15,2013-11-24 05:47:00,
2013-11-23 23:52:00,23.2,13.5,30.71,ENE,75,3.0,4.0,66,0.00,,,0.00,Wunderground v.1.15,2013-11-24 05:52:00,
2013-11-23 23:57:00,23.1,13.4,30.71,NE,34,4.0,7.0,66,0.00,,,0.00,Wunderground v.1.15,2013-11-24 05:57:00,